[[{"header":{"parameterUnit":"m.s-1","parameterCategory":1,"la1":30.2991,"la2":30.254,"lo1":-89.0895,"lo2":-89.0444,"dy":0.0017,"dx":0.0017,"nx":28,"ny":28,"refTime":"2025-06-14T09:00:00:Z","depth":0,"parameterNumber":2,"parameterNumberName":"U-component_of_WINDS"},"data":[0,0,0,0,0,0,0,0,0,0,0,0,0,0,0,0,0,0,0,0,0,0,0,0,0,0,0,0,0,0,0,0,0,0,0,0,0,0,0,0,0,0,0,0,0,0,0,0,0,0,0,0,0,0,0,0,0,0,0.5323,0.5325,0,0.5543,0.5546,0.5548,0.5652,0.5651,0.5651,0.5651,0.5881,0.5887,0.5893,0,0,0,0,0,0,0,0,0,0,0,0,0,0.4992,0.4998,0.5322,0.5325,0.5328,0.5543,0.5546,0.5549,0.5652,0.5651,0.5651,0.5651,0.5879,0.5886,0.5894,0,0,0,0,0,0,0,0,0,0,0,0,0,0.5166,0.4999,0.5322,0.5405,0.5414,0.5542,0.5546,0.555,0.5652,0.5651,0.5651,0.5651,0.5876,0.5885,0.5895,0.5958,0,0,0.5923,0.5928,0,0,0,0,0,0,0,0,0.5156,0.5178,0.539,0.5399,0.541,0.557,0.5514,0.5687,0.5652,0.5562,0.5651,0.5651,0.5778,0.5795,0.5837,0.5969,0.5978,0.5924,0.593,0.5934,0.5937,0,0,0,0,0,0,0,0.5144,0.517,0.541,0.5393,0.5405,0.5432,0.5456,0.5547,0.5669,0.5569,0.5577,0.5602,0.5783,0.5828,0.5843,0.5982,0.5924,0.5932,0.5938,0.5942,0.6177,0.6177,0,0,0,0,0,0,0.5118,0.5159,0.5403,0.5417,0.528,0.5438,0.5466,0.5519,0.5668,0.569,0.5602,0.5606,0.5812,0.5832,0.5852,0.5936,0.5934,0.5943,0.5948,0.6176,0.6177,0.6178,0,0,0,0,0,0,0.5111,0.5139,0.5394,0.529,0.5324,0.5444,0.5503,0.5523,0.5568,0.5692,0.5715,0.5625,0.5813,0.5839,0.5931,0.5946,0.5947,0.5956,0.6176,0.6176,0.6177,0.6105,0,0,0,0,0,0,0.5101,0.5136,0.516,0.529,0.533,0.5468,0.5504,0.5528,0.5584,0.5591,0.572,0.5741,0.5814,0.5916,0.594,0.5959,0.5963,0.6175,0.6176,0.6177,0.6106,0.6103,0.61,0,0,0,0,0,0.5089,0.5132,0.5161,0.519,0.5363,0.5468,0.5491,0.5574,0.5584,0.5611,0.569,0.5737,0.594,0.5925,0.5952,0.5974,0.6174,0.6176,0.6177,0.6108,0.6104,0.61,0,0,0,0,0,0,0.5002,0.515,0.5184,0.527,0.5356,0.5486,0.5521,0.5567,0.5652,0.5656,0.5755,0.5783,0.5867,0.593,0.591,0.6043,0.6061,0.6068,0.5999,0.5997,0.5993,0.5977,0.5971,0,0,0,0,0,0.4992,0.5065,0.5191,0.5255,0.5296,0.5401,0.545,0.5506,0.5599,0.5636,0.5723,0.5812,0.5897,0.595,0.6034,0.6116,0.6146,0.6144,0.6141,0.6138,0.6143,0.6192,0.6193,0.6182,0.6182,0.6182,0,0,0.4974,0.5064,0.5104,0.524,0.5313,0.5387,0.5431,0.5507,0.5563,0.5648,0.574,0.5807,0.5913,0.6,0.6043,0.6056,0.6153,0.614,0.6136,0.6144,0.6193,0.6194,0.6195,0.6183,0.6183,0.6183,0,0,0.498,0.5054,0.5116,0.5188,0.5297,0.5367,0.5381,0.5504,0.5551,0.5645,0.571,0.5779,0.5921,0.5995,0.6051,0.6082,0.6129,0.6107,0.6092,0.6138,0.6139,0.614,0.6152,0.6155,0.6112,0.6111,0.6111,0,0.4944,0.5057,0.5142,0.5215,0.5273,0.5351,0.5415,0.5481,0.5613,0.5651,0.5663,0.5843,0.5921,0.6026,0.6034,0.6076,0.6097,0.6093,0.6131,0.6133,0.6136,0.6149,0.6153,0.6108,0.6108,0.6109,0.6109,0,0.5008,0.5085,0.5122,0.5246,0.5308,0.5375,0.5472,0.5525,0.5575,0.5643,0.5737,0.5833,0.5938,0.5967,0.6017,0.608,0.6084,0.6112,0.6132,0.6132,0.6146,0.6152,0.6103,0.6105,0.6106,0.6106,0,0,0.4966,0.5135,0.5147,0.5204,0.5331,0.5393,0.5464,0.5566,0.5609,0.5697,0.576,0.5878,0.5905,0.5968,0.6028,0.6068,0.6088,0.6092,0.6096,0.6088,0.6164,0.6143,0.6147,0.6119,0.612,0.6121,0.6155,0,0.4989,0.512,0.5198,0.5297,0.5371,0.5446,0.5509,0.5593,0.5658,0.5731,0.5804,0.5886,0.5915,0.5954,0.5997,0.6076,0.6105,0.6075,0.618,0.6183,0.6152,0.6154,0.6132,0.616,0.6161,0.6162,0.6163,0,0.5034,0.5119,0.5225,0.5343,0.5377,0.5431,0.5531,0.5598,0.5696,0.5741,0.5811,0.587,0.595,0.5962,0.6074,0.6051,0.6099,0.6144,0.6148,0.6162,0.6173,0.6169,0.6171,0.6175,0.6172,0.6171,0.6171,0,0.4993,0.5134,0.5216,0.5263,0.5402,0.5439,0.5499,0.5596,0.5652,0.5739,0.5777,0.5872,0.5925,0.5998,0.6081,0.6082,0.6185,0.6204,0.6226,0.6223,0.6245,0.6243,0.6255,0.6273,0.6273,0.6273,0.6273,0,0.5012,0.5074,0.52,0.525,0.5323,0.5412,0.5482,0.5548,0.5634,0.5699,0.577,0.583,0.5937,0.601,0.6076,0.6159,0.6182,0.6221,0.6238,0.6216,0.6211,0.6249,0.625,0.6274,0.6274,0.6274,0.6273,0,0.4979,0.5066,0.516,0.5284,0.5317,0.5365,0.5471,0.5524,0.5592,0.5674,0.5699,0.5807,0.5897,0.5987,0.6109,0.6154,0.6235,0.6258,0.6202,0.6212,0.6228,0.6226,0.6267,0.6277,0.6286,0.6286,0.6286,0,0.4986,0.5035,0.5164,0.5212,0.527,0.5348,0.5405,0.5495,0.5552,0.5667,0.5705,0.58,0.5881,0.6022,0.6112,0.6206,0.6232,0.624,0.6247,0.6222,0.6233,0.623,0.6236,0.6237,0.6236,0.6236,0.6236,0,0.4988,0.5029,0.5108,0.5202,0.5268,0.5347,0.5428,0.5464,0.557,0.5631,0.5723,0.5786,0.5909,0.6003,0.6107,0.6171,0.6221,0.6232,0.6243,0.6221,0.6186,0.6206,0.6195,0.6231,0.6232,0.6232,0.6232,0.6233,0.4977,0.5024,0.5122,0.5208,0.5279,0.5353,0.5408,0.5484,0.5562,0.5669,0.5718,0.581,0.5908,0.6052,0.6114,0.6189,0.6203,0.6217,0.6221,0.6223,0.6219,0.6173,0.6208,0.6209,0.6209,0.6209,0.6209,0,0.4984,0.505,0.5128,0.524,0.5307,0.5347,0.544,0.5494,0.5575,0.566,0.5738,0.5844,0.5936,0.6032,0.613,0.6171,0.6197,0.6194,0.6192,0.6206,0.6201,0.6182,0.6171,0.6171,0.6171,0.6171,0.6171,0.6171,0.4996,0.5079,0.513,0.5249,0.5316,0.5407,0.5456,0.5525,0.5594,0.5709,0.5785,0.5847,0.5938,0.6042,0.6128,0.6154,0.6187,0.6177,0.621,0.6204,0.6206,0.6209,0.6193,0.6184,0.6184,0.621,0.621,0.6211]},{"header":{"parameterUnit":"m.s-1","parameterCategory":1,"la1":30.2991,"la2":30.254,"lo1":-89.0895,"lo2":-89.0444,"dy":0.0017,"dx":0.0017,"nx":28,"ny":28,"refTime":"2025-06-14T09:00:00:Z","depth":0,"parameterNumber":3,"parameterNumberName":"V-component_of_WINDS"},"data":[0,0,0,0,0,0,0,0,0,0,0,0,0,0,0,0,0,0,0,0,0,0,0,0,0,0,0,0,0,0,0,0,0,0,0,0,0,0,0,0,0,0,0,0,0,0,0,0,0,0,0,0,0,0,0,0,0,0,4.8186,4.8185,0,4.8132,4.8132,4.8131,4.8085,4.8084,4.8084,4.8083,4.8024,4.8022,4.8021,0,0,0,0,0,0,0,0,0,0,0,0,0,4.8243,4.8242,4.8186,4.8185,4.8184,4.8132,4.8132,4.8131,4.8085,4.8084,4.8084,4.8083,4.8024,4.8023,4.8021,0,0,0,0,0,0,0,0,0,0,0,0,0,4.8207,4.8242,4.8186,4.8155,4.8152,4.8133,4.8132,4.8131,4.8085,4.8084,4.8084,4.8083,4.8024,4.8023,4.8021,4.8026,0,0,4.8016,4.8015,0,0,0,0,0,0,0,0,4.8209,4.8205,4.816,4.8157,4.8154,4.8115,4.813,4.8095,4.8085,4.811,4.8083,4.8082,4.8054,4.805,4.8041,4.8023,4.8021,4.8016,4.8015,4.8014,4.8014,0,0,0,0,0,0,0,4.8212,4.8207,4.8164,4.816,4.8156,4.8143,4.8137,4.8123,4.8087,4.8108,4.8105,4.8099,4.8052,4.8043,4.804,4.802,4.8016,4.8014,4.8013,4.8013,4.8003,4.8004,0,0,0,0,0,0,4.8219,4.8209,4.8166,4.8163,4.818,4.8142,4.8136,4.8128,4.8087,4.808,4.81,4.8097,4.8046,4.8042,4.8037,4.8041,4.8014,4.8012,4.8012,4.8002,4.8003,4.8004,0,0,0,0,0,0,4.8221,4.8216,4.8168,4.8185,4.8178,4.8142,4.8134,4.8127,4.8118,4.8081,4.8074,4.8098,4.8046,4.804,4.803,4.8038,4.8012,4.801,4.8002,4.8003,4.8004,4.8048,0,0,0,0,0,0,4.8223,4.8217,4.8219,4.8186,4.8177,4.8163,4.8134,4.8127,4.8116,4.8112,4.8077,4.807,4.8045,4.8032,4.8028,4.8035,4.8009,4.8001,4.8002,4.8003,4.8045,4.805,4.8055,0,0,0,0,0,4.8225,4.8233,4.822,4.8215,4.818,4.8163,4.8159,4.813,4.8117,4.8119,4.8095,4.8072,4.8038,4.8032,4.8026,4.8033,4.8,4.8002,4.8003,4.8043,4.8049,4.8054,0,0,0,0,0,0,4.8266,4.8227,4.8213,4.821,4.8191,4.8156,4.8157,4.8137,4.812,4.8117,4.808,4.8073,4.8067,4.8049,4.8043,4.8036,4.8016,4.8017,4.8048,4.8054,4.8058,4.8062,4.8007,0,0,0,0,0,4.8275,4.8267,4.8233,4.8233,4.8225,4.8193,4.8184,4.8164,4.8142,4.8133,4.8108,4.8086,4.8071,4.8061,4.8045,4.8043,4.8034,4.8045,4.8049,4.8053,4.8054,4.8052,4.8057,4.801,4.801,4.801,0,0,4.8293,4.8271,4.8267,4.8241,4.8224,4.8215,4.8186,4.8177,4.8169,4.8131,4.8121,4.8102,4.8075,4.8069,4.8065,4.8054,4.8066,4.8056,4.8059,4.8058,4.8054,4.8059,4.8063,4.8011,4.8011,4.8011,0,0,4.8322,4.8304,4.8303,4.8287,4.8262,4.8241,4.8241,4.8209,4.8196,4.8185,4.8157,4.8146,4.812,4.8102,4.809,4.8113,4.8091,4.8108,4.8132,4.813,4.8134,4.8137,4.8145,4.8149,4.8109,4.8109,4.8109,0,4.8347,4.8333,4.8305,4.8298,4.8287,4.8255,4.8253,4.8238,4.8208,4.82,4.8189,4.8156,4.8136,4.8126,4.8132,4.8122,4.812,4.8112,4.8136,4.8139,4.8141,4.8148,4.8152,4.8112,4.8111,4.8111,4.8111,0,4.8365,4.8356,4.8358,4.8333,4.8322,4.8318,4.8288,4.828,4.8261,4.8241,4.8231,4.8205,4.8183,4.8179,4.816,4.8167,4.8161,4.8143,4.8122,4.8148,4.8155,4.8157,4.8115,4.8114,4.8113,4.8113,0,0,4.8417,4.8377,4.8378,4.8367,4.8337,4.8329,4.8323,4.8304,4.8298,4.8278,4.8272,4.8252,4.8236,4.8221,4.82,4.8198,4.8219,4.8181,4.8179,4.8189,4.8224,4.8238,4.8242,4.8204,4.8205,4.8205,4.8227,0,4.8441,4.843,4.8405,4.8402,4.8393,4.8362,4.8357,4.8337,4.8319,4.8307,4.8285,4.8272,4.8252,4.8243,4.8241,4.8217,4.8225,4.8215,4.8197,4.8197,4.8205,4.8245,4.8259,4.8281,4.8229,4.8229,4.823,0,4.8466,4.8451,4.8448,4.842,4.8415,4.8411,4.8392,4.8382,4.8359,4.8345,4.833,4.8307,4.8298,4.8279,4.8266,4.826,4.8251,4.8238,4.8238,4.8235,4.8215,4.8243,4.8287,4.8291,4.8233,4.8233,4.8233,0,4.8505,4.8483,4.8479,4.847,4.8436,4.8435,4.842,4.8397,4.8387,4.837,4.8363,4.8344,4.8334,4.8319,4.8291,4.828,4.8281,4.8259,4.8268,4.8269,4.827,4.827,4.8313,4.8264,4.8264,4.8264,4.8264,0,4.8534,4.8533,4.8496,4.8493,4.8491,4.8462,4.846,4.8443,4.8422,4.8415,4.8386,4.8379,4.8343,4.8331,4.8309,4.8302,4.8297,4.8285,4.8279,4.8287,4.8289,4.8281,4.8278,4.8265,4.8265,4.8265,4.8264,0,4.8576,4.8552,4.8545,4.8515,4.8507,4.8507,4.848,4.8476,4.8456,4.8447,4.8443,4.8411,4.8396,4.8367,4.8343,4.8328,4.8326,4.8315,4.8334,4.833,4.8341,4.8341,4.8381,4.8384,4.8333,4.8334,4.8334,0,4.8596,4.8595,4.8566,4.856,4.8547,4.8537,4.8528,4.8499,4.849,4.8465,4.8463,4.8447,4.8432,4.8409,4.8383,4.8365,4.8354,4.8369,4.835,4.8359,4.8354,4.8355,4.8354,4.8373,4.8374,4.8374,4.8375,0,4.8635,4.8623,4.8611,4.8596,4.8586,4.8572,4.8556,4.8552,4.8519,4.851,4.8496,4.8485,4.8462,4.8445,4.8424,4.8407,4.8385,4.8381,4.8382,4.8391,4.8402,4.8396,4.8345,4.838,4.8379,4.8379,4.8379,4.8378,4.8666,4.8664,4.8644,4.8632,4.8618,4.8604,4.8599,4.8579,4.8567,4.8547,4.853,4.8518,4.8495,4.8464,4.8449,4.8438,4.8427,4.8429,4.8429,4.843,4.8434,4.8404,4.8433,4.8433,4.8433,4.8433,4.8433,0,4.8704,4.8689,4.8679,4.8659,4.8649,4.8632,4.8613,4.8606,4.8596,4.8577,4.8564,4.8548,4.8532,4.8505,4.8487,4.8483,4.8473,4.8479,4.8479,4.8476,4.8444,4.8445,4.8488,4.8488,4.8488,4.8488,4.8488,4.8488,4.8722,4.8718,4.8704,4.8692,4.8677,4.8666,4.8657,4.8644,4.8629,4.8613,4.86,4.8584,4.8562,4.8542,4.8526,4.8519,4.8513,4.8523,4.8513,4.8483,4.8478,4.8473,4.8474,4.8522,4.8522,4.8545,4.8545,4.8546]}]]